Regional Weather Roundup
Issued by NWS

Home | Current Version | Previous Version | Text Only | Print | Product List | Glossary Off
Versions: 1 2 3 4 5 6 7 8 9 10 11 12 13 14 15 16 17 18 19 20 21 22 23 24 25 26 27 28 29 30 31 32 33 34 35 36 37 38 39 40 41 42 43 44 45 46 47 48 49 50

983
ASUS44 KLIX 310310
RWRLA
LOUISIANA WEATHER ROUNDUP
NATIONAL WEATHER SERVICE NEW ORLEANS LA
900 PM CST FRI JAN 30 2015

NOTE: "FAIR" INDICATES FEW OR NO CLOUDS BELOW 12,000 FEET WITH NO
      SIGNIFICANT WEATHER AND/OR OBSTRUCTIONS TO VISIBILITY.
      SKY/WX - SKY CONDITION AND SIGNIFICANT WEATHER.
      TMP - AIR TEMPERATURE.    DP   - DEWPOINT TEMPERATURE.
      RH  - RELATIVE HUMIDITY.  PRES - PRESSURE.
      HX  - HEAT INDEX.         WCI  - WIND CHILL INDEX.

*  THESE STATIONS ARE NOT NWS OR FAA STATIONS AND ARE NOT UNDER
   NWS QUALITY CONTROL.

LAZ040-048-061>063-065-066-069-310400-
SOUTHEAST LOUISIANA

CITY           SKY/WX    TMP DP  RH WIND       PRES   REMARKS
N.O. AUDUBON     N/A     51  40  64 MISG        N/A
N.O. INTL ARPT MOCLDY    51  39  63 N5        30.35R
N.O. LAKEFRONT PTCLDY    56  42  59 N10       30.35S
N.O. DOWNTOWN* NOT AVBL
SLIDELL        PTCLDY    40  37  89 N5        30.35S
BATON ROUGE    PTCLDY    43  36  76 CALM      30.36R
BOOTHVILLE     MOCLDY    51  43  74 N5        30.34S
BELLE CHASSE   MOCLDY    43  38  82 CALM      30.34S
BOGALUSA*        N/A     42  36  81 CALM      30.38S
GALLIANO*      PTCLDY    53  40  61 MISG      30.34S
NEW ROADS*     FAIR      45  33  63 N7        30.36S
GONZALES*      FAIR      46  39  77 CALM      30.35S
HAMMOND*       PTCLDY    43  36  75 N3        30.37S
HOUMA*         CLEAR     49  37  62 N7        30.34S
PORT FOURCHON* CLEAR     55  43  62 NE7       30.37R

$$

LAZ041-044-053-054-310400-
SOUTHWEST LOUISIANA

CITY           SKY/WX    TMP DP  RH WIND       PRES   REMARKS
LAKE CHARLES   MOCLDY    48  37  65 NE8       30.34R
LAFAYETTE      CLEAR     47  35  63 NE7       30.35R
PATTERSON      PTCLDY    48  36  61 NE6       30.35S
SALT POINT       N/A     49  38  65 CALM      30.33S
NEW IBERIA     CLEAR     50  36  58 NE8       30.35S
CHENAULT AIRPK CLEAR     48  36  61 NE5       30.35S

$$

LAZ027-028-310400-
CENTRAL LOUISIANA

CITY           SKY/WX    TMP DP  RH WIND       PRES   REMARKS
FORT POLK      PTCLDY    47  34  60 NE6       30.35S
ALEXANDRIA INT PTCLDY    46  34  62 NE9       30.36F
ALEXANDRIA     PTCLDY    43  34  70 VRB3      30.38S

$$

LAZ001-002-310400-
NORTHWEST LOUISIANA

CITY           SKY/WX    TMP DP  RH WIND       PRES   REMARKS
SHREVEPORT     PTCLDY    44  31  60 E7        30.38S
BARKSDALE AFB  PTCLDY    45  30  56 E3        30.38F
DTN SHREVEPORT PTCLDY    46  29  51 E5        30.39S

$$

LAZ014-016-310400-
NORTHEAST LOUISIANA

CITY           SKY/WX    TMP DP  RH WIND       PRES   REMARKS
MONROE         PTCLDY    42  31  64 NE5       30.42S
TALLULAH       PTCLDY    40  32  73 N7        30.41S

$$




USA.gov is the U.S. government's official web portal to all federal, state and local government web resources and services.